[[[{"header":{"parameterUnit":"kt","parameterCategory":2,"dx":1,"dy":1,"la1":30.253999710083008,"la2":30.299108505249023,"lo1":-89.0895004272461,"lo2":-89.04439544677734,"nx":28,"ny":28,"refTime":"2022-10-07T21:00:00:Z","depth":0,"parameterNumber":1,"parameterNumberName":"U-component_of_WINDS"},"data":[-6.2089,-6.2261,-6.2229,-6.241,-6.2411,-6.2529,-6.2561,-6.2598,-6.2619,-6.2754,-6.2826,-6.281,-6.2817,-6.2894,-6.2969,-6.296,-6.2996,-6.3079,-6.3055,-6.2708,-6.2658,-6.261,-6.2569,-6.3087,-6.3087,-6.3419,-6.3422,-6.3425,-6.1837,-6.1841,-6.1927,-6.1989,-6.2062,-6.1962,-6.2002,-6.207,-6.2178,-6.2204,-6.2273,-6.2389,-6.2476,-6.2454,-6.2532,-6.261,-6.2568,-6.2634,-6.2629,-6.2632,-6.2259,-6.2216,-6.2667,-6.2667,-6.2667,-6.2667,-6.2667,-6.2666,-6.137,-6.1474,-6.1493,-6.1586,-6.1608,-6.1649,-6.1742,-6.172,-6.1803,-6.1882,-6.1825,-6.1946,-6.1966,-6.2043,-6.206,-6.2152,-6.2073,-6.2135,-6.2152,-6.2169,-6.2194,-6.1723,-6.2163,-6.2162,-6.2161,-6.2159,-6.2158,0,-6.1019,-6.0985,-6.1065,-6.1137,-6.1202,-6.1254,-6.1295,-6.1351,-6.1267,-6.1339,-6.144,-6.1493,-6.1596,-6.1688,-6.1752,-6.1757,-6.1661,-6.1647,-6.169,-6.1722,-6.1741,-6.1735,-6.1132,-6.1635,-6.163,-6.1627,-6.1625,-6.1623,-6.0547,-6.0672,-6.0675,-6.0736,-6.075,-6.085,-6.0902,-6.0817,-6.0876,-6.0914,-6.101,-6.1099,-6.1167,-6.1334,-6.1306,-6.1383,-6.1338,-6.1534,-6.1349,-6.1373,-6.1344,-6.1339,-6.1352,-6.1573,-6.158,-6.1585,-6.1589,0,-6.0286,-6.0231,-6.0414,-6.0404,-6.0405,-6.054,-6.0531,-6.063,-6.0597,-6.073,-6.0756,-6.0705,-6.0806,-6.0745,-6.0848,-6.0813,-6.1034,-6.0986,-6.1027,-6.1015,-6.1187,-6.1173,-6.1748,-6.182,-6.1279,-6.1284,-6.1288,0,-5.9864,-6.003,-5.994,-6.0049,-6.023,-6.0141,-6.0323,-6.0313,-6.0329,-6.0432,-6.0312,-6.0412,-6.0318,-6.0409,-6.0359,-6.0527,-6.0546,-6.0531,-6.0516,-6.0544,-6.0547,-6.0577,-6.0553,-6.0474,-6.0471,-6.0469,-6.0466,0,-5.9462,-5.9608,-5.9783,-5.9808,-5.9815,-5.9899,-5.9905,-5.9921,-5.9973,-6.003,-6.0063,-6.0136,-6.0177,-6.0234,-6.0169,-6.0047,-6.0374,-6.0191,-6.0358,-6.0361,-6.0437,-6.0434,-6.0955,-6.0463,-6.0462,-6.0461,-6.046,0,-5.9114,-5.9174,-5.9437,-5.9438,-5.948,-5.9596,-5.9662,-5.9746,-5.9772,-5.9748,-5.9792,-5.9705,-5.9846,-5.967,-5.9864,-5.9722,-5.9769,-5.9766,-5.9777,-5.979,-5.9595,-5.9901,-6.0401,-6.0452,-5.9796,-5.979,-5.9786,0,-5.867,-5.892,-5.8845,-5.9096,-5.9204,-5.9062,-5.9187,-5.9214,-5.9192,-5.9279,-5.9252,-5.9353,-5.9208,-5.9231,-5.9335,-5.9313,-5.9497,-5.9286,-5.9415,-5.942,-5.9416,-5.9873,-5.9965,-6.0297,-5.9714,-5.9721,-5.9727,0,-5.832,-5.8326,-5.8377,-5.8401,-5.8422,-5.8511,-5.8655,-5.8735,-5.8797,-5.8839,-5.8959,-5.9096,-5.8994,-5.9033,-5.8971,-5.9082,-5.937,-5.8957,-5.8956,-5.9036,-5.9672,-5.9758,-5.9814,-5.9303,-5.9311,-5.9318,-5.967,0,-5.7811,-5.7928,-5.806,-5.8119,-5.8177,-5.833,-5.8267,-5.8336,-5.8269,-5.8243,-5.8416,-5.8423,-5.8504,-5.855,-5.8487,-5.876,-5.8705,-5.8595,-5.8422,-5.8722,-5.8836,-5.8883,-5.8256,-5.825,-5.8246,-5.8242,0,0,-5.7402,-5.7569,-5.7482,-5.762,-5.7664,-5.7515,-5.7685,-5.771,-5.7767,-5.7801,-5.7702,-5.79,-5.791,-5.8128,-5.8216,-5.8249,-5.8292,-5.819,-5.8579,-5.8616,-5.8651,-5.8775,-5.8824,-5.8234,-5.8232,-5.823,-5.8229,0,-5.7204,-5.7216,-5.7384,-5.7407,-5.7437,-5.74,-5.7441,-5.7444,-5.7435,-5.7604,-5.748,-5.7577,-5.7737,-5.7764,-5.7799,-5.8161,-5.8063,-5.819,-5.8407,-5.8534,-5.8578,-5.8617,-5.8748,-5.8795,-5.8218,-5.8218,-5.8219,0,-5.6849,-5.6852,-5.6926,-5.7019,-5.7038,-5.7151,-5.6953,-5.7081,-5.7164,-5.6996,-5.7167,-5.7162,-5.7193,-5.7407,-5.7501,-5.7415,-5.7859,-5.7707,-5.7734,-5.7744,-5.7864,-5.7917,-5.7964,-5.7344,-5.7341,-5.7339,0,0,-5.6687,-5.6795,-5.6772,-5.6972,-5.6992,-5.694,-5.6993,-5.6933,-5.6964,-5.6977,-5.6969,-5.7003,-5.7095,-5.7158,-5.724,-5.7484,-5.7484,-5.7602,-5.7643,-5.7677,-5.7706,-5.7834,-5.7887,-5.7328,-5.7328,-5.7328,0,0,-5.6609,-5.659,-5.6518,-5.6742,-5.6776,-5.6766,-5.6891,-5.6802,-5.687,-5.6846,-5.675,-5.6755,-5.6954,-5.6955,-5.6821,-5.7178,-5.7007,-5.7038,-5.7171,-5.7222,-5.7263,-5.726,-5.6621,0,0,0,0,0,-5.6374,-5.6592,-5.6526,-5.6555,-5.6672,-5.6802,-5.6817,-5.6743,-5.6623,-5.6724,-5.6703,-5.6594,-5.6863,-5.6743,-5.6772,-5.6923,-5.7193,-5.7217,-5.724,-5.7468,-5.7522,-5.7568,0,0,0,0,0,0,-5.6385,-5.6419,-5.652,-5.6522,-5.6547,-5.6794,-5.6575,-5.6561,-5.6611,-5.6587,-5.6601,-5.6594,-5.6534,-5.6722,-5.675,-5.6895,-5.6611,-5.7202,-5.7223,-5.7241,-5.7487,-5.7531,-5.7569,0,0,0,0,0,-5.6393,-5.642,-5.6629,-5.6518,-5.654,-5.6494,-5.6566,-5.6553,-5.659,-5.6559,-5.6548,-5.653,-5.654,-5.6558,-5.6738,-5.6884,-5.6591,-5.6602,-5.7216,-5.7232,-5.7246,-5.7508,0,0,0,0,0,0,-5.6398,-5.6409,-5.6631,-5.6635,-5.643,-5.6478,-5.6483,-5.6546,-5.6556,-5.6548,-5.6481,-5.6463,-5.6547,-5.6559,-5.6574,-5.6885,-5.6575,-5.6586,-5.6593,-5.7228,-5.724,-5.7252,0,0,0,0,0,0,-5.6393,-5.6413,-5.6633,-5.6527,-5.6518,-5.6465,-5.6469,-5.6611,-5.6558,-5.6478,-5.6463,-5.6473,-5.6525,-5.6562,-5.6573,-5.6798,-5.6563,-5.6573,-5.6581,-5.6585,-5.7238,-5.7248,0,0,0,0,0,0,-5.64,-5.6417,-5.6525,-5.6519,-5.651,-5.6549,-5.6589,-5.6714,-5.6467,-5.648,-5.6443,-5.6432,-5.6531,-5.6539,-5.6573,-5.6794,-5.6797,-5.6563,-5.657,-5.6575,-5.6579,0,0,0,0,0,0,0,-5.6406,-5.6308,-5.6608,-5.6512,-5.6504,-5.6672,-5.6673,-5.6674,-5.6465,-5.6455,-5.6445,-5.6437,-5.6504,-5.6515,-5.6527,-5.6791,0,0,-5.6562,-5.6567,0,0,0,0,0,0,0,0,-5.6299,-5.6306,-5.6608,-5.6609,-5.6609,-5.6672,-5.6673,-5.6674,-5.6463,-5.6455,-5.6448,-5.644,-5.6507,-5.6516,-5.6526,0,0,0,0,0,0,0,0,0,0,0,0,0,0,0,-5.6608,-5.6609,0,-5.6672,-5.6673,-5.6674,-5.6462,-5.6456,-5.6449,-5.6443,-5.651,-5.6517,-5.6525,0,0,0,0,0,0,0,0,0,0,0,0,0,0,0,0,0,0,0,0,0,0,0,0,0,0,0,0,0,0,0,0,0,0,0,0,0,0,0,0,0,0,0,0,0,0,0,0,0,0,0,0,0,0,0,0,0,0,0,0,0,0,0,0,0,0,0,0,0]}],[{"header":{"parameterUnit":"kt","parameterCategory":2,"dx":1,"dy":1,"la1":30.253999710083008,"la2":30.299108505249023,"lo1":-89.0895004272461,"lo2":-89.04439544677734,"nx":28,"ny":28,"refTime":"2022-10-07T21:00:00:Z","depth":0,"parameterNumber":2,"parameterNumberName":"V-component_of_WINDS"},"data":[-11.2532,-11.2711,-11.271,-11.2911,-11.2943,-11.3078,-11.3125,-11.3185,-11.3231,-11.3388,-11.3477,-11.349,-11.353,-11.3632,-11.3725,-11.3727,-11.3766,-11.3831,-11.3822,-11.3538,-11.3498,-11.346,-11.3418,-11.384,-11.3841,-11.4116,-11.4119,-11.4121,-11.2321,-11.2356,-11.2463,-11.2565,-11.2655,-11.2591,-11.2664,-11.2743,-11.2865,-11.2922,-11.301,-11.3147,-11.3253,-11.3272,-11.3371,-11.3449,-11.3423,-11.3476,-11.347,-11.3476,-11.3173,-11.3129,-11.3496,-11.3496,-11.3496,-11.3496,-11.3496,-11.3496,-11.1936,-11.2044,-11.2105,-11.2221,-11.2271,-11.2338,-11.2438,-11.2453,-11.2555,-11.2663,-11.2637,-11.2773,-11.2827,-11.2944,-11.2981,-11.3084,-11.3022,-11.3078,-11.3092,-11.3106,-11.3123,-11.2723,-11.31,-11.3099,-11.3098,-11.3097,-11.3096,0,-11.1653,-11.1645,-11.1748,-11.185,-11.1934,-11.2011,-11.2081,-11.2143,-11.2118,-11.2203,-11.2324,-11.2392,-11.2525,-11.2635,-11.2727,-11.2753,-11.2691,-11.2684,-11.2722,-11.2737,-11.2738,-11.2737,-11.2241,-11.2673,-11.2669,-11.2667,-11.2665,-11.2663,-11.1263,-11.139,-11.1453,-11.1525,-11.1563,-11.168,-11.1747,-11.1717,-11.179,-11.1868,-11.1962,-11.2074,-11.2161,-11.2352,-11.2362,-11.2459,-11.2429,-11.2595,-11.2443,-11.2452,-11.243,-11.2422,-11.2433,-11.2624,-11.2629,-11.2633,-11.2637,0,-11.1043,-11.1039,-11.1235,-11.1283,-11.1299,-11.1432,-11.147,-11.1575,-11.1576,-11.1719,-11.175,-11.1752,-11.1869,-11.1853,-11.1982,-11.1969,-11.218,-11.2149,-11.2161,-11.2153,-11.2298,-11.2284,-11.2776,-11.2837,-11.2401,-11.2405,-11.2409,0,-11.0707,-11.0875,-11.0859,-11.0972,-11.1156,-11.1121,-11.1302,-11.1322,-11.137,-11.1482,-11.1411,-11.1517,-11.148,-11.1583,-11.1564,-11.1734,-11.1758,-11.1758,-11.1751,-11.1764,-11.1764,-11.1799,-11.1778,-11.1732,-11.1729,-11.1727,-11.1725,0,-11.0362,-11.055,-11.0735,-11.0777,-11.0844,-11.0931,-11.0962,-11.1016,-11.1082,-11.1164,-11.1206,-11.1304,-11.1358,-11.1432,-11.1408,-11.1306,-11.1616,-11.147,-11.1615,-11.1616,-11.1683,-11.1679,-11.212,-11.1722,-11.1721,-11.172,-11.1719,0,-11.009,-11.018,-11.045,-11.0503,-11.0553,-11.0674,-11.077,-11.087,-11.0931,-11.0929,-11.0993,-11.0943,-11.1092,-11.0948,-11.1151,-11.1025,-11.108,-11.1093,-11.1103,-11.1114,-11.0954,-11.1202,-11.1625,-11.1668,-11.1125,-11.112,-11.1116,0,-10.9695,-10.9966,-10.994,-11.0196,-11.0318,-11.0231,-11.0364,-11.0421,-11.0429,-11.0531,-11.0536,-11.0653,-11.0543,-11.0576,-11.0679,-11.0689,-11.0853,-11.0667,-11.0807,-11.0813,-11.0793,-11.1183,-11.1249,-11.1535,-11.1052,-11.1059,-11.1064,0,-10.9388,-10.9472,-10.952,-10.9566,-10.964,-10.9742,-10.9895,-11.0004,-11.0074,-11.0146,-11.0271,-11.0435,-11.0357,-11.0414,-11.0383,-11.0491,-11.0741,-11.0393,-11.0394,-11.0455,-11.102,-11.1082,-11.113,-11.0695,-11.0703,-11.0709,-11.1014,0,-10.8974,-10.911,-10.924,-10.9345,-10.9422,-10.9582,-10.9569,-10.965,-10.9614,-10.9618,-10.9803,-10.9845,-10.9953,-11.0004,-10.9969,-11.0223,-11.0177,-11.0093,-10.9951,-11.0207,-11.0307,-11.0348,-10.9804,-10.9799,-10.9796,-10.9793,0,0,-10.8596,-10.8791,-10.8758,-10.8907,-10.897,-10.8877,-10.9049,-10.9098,-10.9201,-10.9244,-10.9165,-10.9402,-10.944,-10.9664,-10.9743,-10.9788,-10.983,-10.9742,-11.0086,-11.0119,-11.0149,-11.0256,-11.0299,-10.9786,-10.9785,-10.9784,-10.9783,0,-10.8442,-10.849,-10.8663,-10.8713,-10.8787,-10.8785,-10.8826,-10.8882,-10.8893,-10.9075,-10.8993,-10.9101,-10.9292,-10.9342,-10.9392,-10.9715,-10.9645,-10.9749,-10.9928,-11.005,-11.0088,-11.0121,-11.0234,-11.0275,-10.9774,-10.9774,-10.9775,0,-10.8136,-10.818,-10.8263,-10.8404,-10.8451,-10.858,-10.8429,-10.8572,-10.8665,-10.8553,-10.8735,-10.8756,-10.8822,-10.9037,-10.9133,-10.9063,-10.9477,-10.9345,-10.9367,-10.9377,-10.9494,-10.9539,-10.958,-10.9049,-10.9046,-10.9044,0,0,-10.8005,-10.8132,-10.8168,-10.837,-10.8406,-10.8405,-10.8472,-10.8443,-10.8507,-10.8533,-10.8559,-10.8621,-10.873,-10.8804,-10.8906,-10.9145,-10.9154,-10.9256,-10.929,-10.9318,-10.9343,-10.9468,-10.9513,-10.9035,-10.9035,-10.9034,0,0,-10.7941,-10.7992,-10.7946,-10.8179,-10.8245,-10.8291,-10.8413,-10.8356,-10.8448,-10.8427,-10.8382,-10.8397,-10.8598,-10.8622,-10.85,-10.8854,-10.8714,-10.8743,-10.8832,-10.8875,-10.8908,-10.8897,-10.8348,0,0,0,0,0,-10.7778,-10.7986,-10.7943,-10.7981,-10.8158,-10.8315,-10.8337,-10.8307,-10.8208,-10.8305,-10.8317,-10.8239,-10.8546,-10.8437,-10.8473,-10.8609,-10.8916,-10.8937,-10.8957,-10.9127,-10.9172,-10.9211,0,0,0,0,0,0,-10.7792,-10.7838,-10.7937,-10.7994,-10.8033,-10.8308,-10.8133,-10.8131,-10.8197,-10.818,-10.824,-10.8241,-10.8216,-10.8416,-10.8449,-10.8579,-10.8336,-10.8924,-10.8942,-10.8958,-10.9143,-10.918,-10.9211,0,0,0,0,0,-10.7803,-10.784,-10.8134,-10.799,-10.8025,-10.8034,-10.8125,-10.8122,-10.8172,-10.8192,-10.8191,-10.8143,-10.8221,-10.8246,-10.8436,-10.8565,-10.8314,-10.8326,-10.8936,-10.895,-10.8962,-10.9161,0,0,0,0,0,0,-10.7812,-10.7837,-10.814,-10.8149,-10.791,-10.8018,-10.8034,-10.8114,-10.8179,-10.8181,-10.8092,-10.8078,-10.8226,-10.8245,-10.8265,-10.8562,-10.8295,-10.8308,-10.8315,-10.8946,-10.8957,-10.8967,0,0,0,0,0,0,-10.7816,-10.7845,-10.8145,-10.8046,-10.8043,-10.8003,-10.8018,-10.8174,-10.8181,-10.8075,-10.8065,-10.8085,-10.8195,-10.8245,-10.826,-10.8506,-10.8281,-10.8293,-10.8301,-10.8306,-10.8955,-10.8964,0,0,0,0,0,0,-10.7828,-10.7852,-10.8043,-10.8041,-10.8038,-10.8138,-10.814,-10.8323,-10.81,-10.8073,-10.8078,-10.8068,-10.8198,-10.8212,-10.8258,-10.8498,-10.8504,-10.8281,-10.8289,-10.8295,-10.8299,0,0,0,0,0,0,0,-10.7837,-10.7681,-10.8087,-10.8037,-10.8034,-10.8234,-10.8236,-10.8239,-10.8097,-10.8089,-10.808,-10.8073,-10.8212,-10.8225,-10.8239,-10.8491,0,0,-10.828,-10.8286,0,0,0,0,0,0,0,0,-10.7669,-10.7678,-10.8087,-10.8089,-10.8091,-10.8234,-10.8236,-10.8238,-10.8096,-10.8089,-10.8082,-10.8076,-10.8216,-10.8226,-10.8237,0,0,0,0,0,0,0,0,0,0,0,0,0,0,0,-10.8087,-10.8089,0,-10.8235,-10.8236,-10.8238,-10.8095,-10.8089,-10.8084,-10.8078,-10.8219,-10.8228,-10.8236,0,0,0,0,0,0,0,0,0,0,0,0,0,0,0,0,0,0,0,0,0,0,0,0,0,0,0,0,0,0,0,0,0,0,0,0,0,0,0,0,0,0,0,0,0,0,0,0,0,0,0,0,0,0,0,0,0,0,0,0,0,0,0,0,0,0,0,0,0]}]]]